"Pseudo-MPEC" for P10OlRx

Created 2019 Jun 15 19:09:15 UT using Find_Orb

Click here for an explanation of pseudo-MPECs

 
 Astrometry: 
     P10OlRx  C2019 05 30u8?lo-d_F/ZM_wW,u1k\mYmv+,FNW'R.Fy$Tc=Trw'2N8#Id_qC,F51
     P10OlRx  C2019 05 30GNmmWJd^Vr^UPlsGFkx'WL?P)C:Bn]O;eBbvFL4Es2O?+wfPuG.AF51
     P10OlRx  C2019 05 308+dRNXiWs.y5+ybsUalg6fL3,#cSeet#p8/DJx!w,T37Suec\WPLF51
     P10OlRx  C2019 05 31wW:)Z#]yh1V^Je]t=^LIm_;Zcp7nv5K6_9U8'gnf73#eP;7y.vncF52
     P10OlRx  C2019 05 310tLZ2tW!Em?^-OvhD.-W1LaMa5nUxY*%9yJqy6]%?4G[XVBjAoQnF52
     P10OlRx  C2019 05 31gl^[\:,aT;Xs:PcQ/)eWx3ahT0?#wfa2hwMt9[vT9IHj2Sy;?04qF51
     P10OlRx  C2019 05 31Cu_R_X/6DJHfGO``06Astrometryn$_HLp!Ai2U:/*redacted;SF52
     P10OlRx  C2019 05 31;C1JY0t\vv17\v'QgGmq#4:5DTy(-:Ls?+)mAYiSJOR1)sX+@*.TF51
     P10OlRx  C2019 05 31DxRyQ[,E-Ydlb24clickv!A'pRly%K^E/FTSx,,OA9u(r9u5KceMF51
     P10OlRx  C2019 06 03*?.r!SQkw57+B6kO?3B:;n.j]YSH`]hI7:JDE*5vs'';qsj6,2+!F51
     P10OlRx |C2019 06 06'9ldrEgYhere]/\N#,MHjEcC$:yI+_[6abO-'G,nZi#rENFaM/+T807
     P10OlRx |C2019 06 06hy-7*mL@.5I;KGd+7g/GX.O%o#hT10TG81N3?c\ZY-\CmMdI61[D807
     P10OlRx |C2019 06 06:`9=)nNmGonXC'R,f?%HLuZu1EWU_qI#Tq+Hs,=Ae`IqFA7eF`[s807
     P10OlRx  C2019 06 075;H!`Y0EQY_Pb-#n$E3dH*dCBOi\dq%eL?x]?)AiG)P$RU#e?%J*F51
     P10OlRx  C2019 06 07HF38(R.S1MQLcpUY7DZuu_M*lIB-jbu\D'kx8XiDA9T+x5MN-WjSF51
     P10OlRx KC2019 06 10[fpBW2q9Wx^/7Wg!btU%T++[3l9XENDopU(BI9@-HWd58@w2um7)291
     P10OlRx KC2019 06 10yve2BXjA,ikVDsxmfs!4*?Ivfor_.5myFO)3K;WG!F82Eed8Q]me291
     P10OlRx KC2019 06 10hghLBMaiZ60=#5YZ\4[NF9explanation1rjHf/j-Q/3s6ucp/SL291

Station data:
(291) LPL/Spacewatch II  (N31.961669 W111.599905)  US/Arizona.  Observers J.
   V. Scotti, R. S. McMillan. 1.8-m f/2.7 reflector + CCD.
(807) Cerro Tololo Observatory, La Serena  (S30.169136 W70.805900)  Chile.
(F51) Pan-STARRS 1, Haleakala  (N20.707235 W156.255910)  US/Hawaii.
   Observers N. Primak, A. Schultz, S. Watters, J. Thiel, T. Goggia. Measurer
   PS1 Science Consortium. 1.8-m Ritchey-Chrétien + CCD.
(F52) Pan-STARRS 2, Haleakala  (N20.707384 W156.255910)  US/Hawaii. 1.8-m
   Ritchey-Chrétien + CCD.

Orbital elements:  P10OlRx
   Perihelion 2020 May 28.360479 +/- 4.2 TT =  8:39:05 (JD 2458997.860479)
Epoch 2019 Jun 10.0 TT = JDT 2458644.5   Earth MOID: 0.6871   AutoNEOCP
M 224.04415166 +/- 1.4              (J2000 ecliptic)
n   0.38475114 +/- 0.000465         Peri.  166.16979 +/- 1.1
a   1.87218791 +/- 0.00151          Node   227.72703 +/- 0.08
e   0.1049242 +/- 0.000285          Incl.   20.27574 +/- 0.12
P   2.56/935.65d           H 20.3   G  0.15   U  7.7  
q 1.67574994 +/- 0.00153    Q 2.06862587 +/- 0.00166
From 18 observations 2019 May 30-June 10; mean residual 0".15
Residuals in arcseconds: 
190530 F51  .12-  .02+    190531 F52  .15+  .28+    190606 807  .08-  .03-    
190530 F51  .19+  .18-    190531 F51  .20-  .04-    190607 F51  .04+  .10+    
190530 F51  .02-  .02-    190531 F51  .19+  .05-    190607 F51  .03-  .02+    
190531 F52  .15+  .20+    190603 F51  .02+  .04-    190610 291  .26+  .05+    
190531 F52  .04+  .08+    190606 807  .04+  .04-    190610 291  .21-  .07-    
190531 F51  .49-  .34-    190606 807  .04+  .04-    190610 291  .07-  .00     

Ephemerides (geocentric):
Date (UTC) HH   RA              Dec         delta   r     elong  mag " sig PA
---- -- -- --  -------------   -----------  ------ ------ -----  --- ---- ---
2019 06 15 19  15 56 20.065   -04 24 07.48  1.0744 2.0176 149.7 22.8 1.07 167
2019 06 15 20  15 56 17.831   -04 23 40.34  1.0746 2.0176 149.7 22.8 1.08 167
2019 06 15 21  15 56 15.599   -04 23 13.24  1.0748 2.0176 149.6 22.8 1.09 167
2019 06 15 22  15 56 13.371   -04 22 46.18  1.0750 2.0175 149.6 22.8 1.10 167
2019 06 15 23  15 56 11.145   -04 22 19.15  1.0752 2.0175 149.5 22.8 1.11 166
2019 06 16 00  15 56 08.922   -04 21 52.16  1.0754 2.0175 149.5 22.8 1.13 166
2019 06 16 01  15 56 06.702   -04 21 25.20  1.0756 2.0174 149.4 22.8 1.14 166
2019 06 16 02  15 56 04.486   -04 20 58.28  1.0758 2.0174 149.4 22.8 1.15 166
2019 06 16 03  15 56 02.272   -04 20 31.40  1.0759 2.0174 149.3 22.8 1.16 166
2019 06 16 04  15 56 00.061   -04 20 04.56  1.0761 2.0173 149.3 22.8 1.18 165
2019 06 16 05  15 55 57.853   -04 19 37.75  1.0763 2.0173 149.2 22.8 1.19 165
2019 06 16 06  15 55 55.648   -04 19 10.97  1.0765 2.0173 149.2 22.8 1.20 165
2019 06 16 07  15 55 53.446   -04 18 44.24  1.0767 2.0172 149.2 22.8 1.21 165
2019 06 16 08  15 55 51.247   -04 18 17.54  1.0769 2.0172 149.1 22.8 1.23 165
2019 06 16 09  15 55 49.051   -04 17 50.87  1.0771 2.0172 149.1 22.8 1.24 165
2019 06 16 10  15 55 46.858   -04 17 24.25  1.0773 2.0171 149.0 22.8 1.25 164
2019 06 16 11  15 55 44.668   -04 16 57.66  1.0775 2.0171 149.0 22.8 1.27 164
2019 06 16 12  15 55 42.481   -04 16 31.10  1.0776 2.0171 148.9 22.8 1.28 164
2019 06 16 13  15 55 40.297   -04 16 04.59  1.0778 2.0170 148.9 22.8 1.29 164
2019 06 16 14  15 55 38.116   -04 15 38.11  1.0780 2.0170 148.8 22.8 1.31 164
2019 06 16 15  15 55 35.938   -04 15 11.66  1.0782 2.0170 148.8 22.8 1.32 164
2019 06 16 16  15 55 33.763   -04 14 45.26  1.0784 2.0169 148.7 22.8 1.33 163
2019 06 16 17  15 55 31.591   -04 14 18.88  1.0786 2.0169 148.7 22.8 1.35 163
2019 06 16 18  15 55 29.422   -04 13 52.55  1.0788 2.0169 148.7 22.8 1.36 163
2019 06 16 19  15 55 27.256   -04 13 26.25  1.0790 2.0168 148.6 22.8 1.37 163
2019 06 16 20  15 55 25.093   -04 12 59.99  1.0792 2.0168 148.6 22.8 1.39 163
2019 06 16 21  15 55 22.933   -04 12 33.77  1.0794 2.0167 148.5 22.8 1.40 163
2019 06 16 22  15 55 20.776   -04 12 07.58  1.0796 2.0167 148.5 22.8 1.42 163
2019 06 16 23  15 55 18.622   -04 11 41.43  1.0798 2.0167 148.4 22.8 1.43 162
2019 06 17 00  15 55 16.471   -04 11 15.32  1.0800 2.0166 148.4 22.8 1.44 162
2019 06 17 01  15 55 14.324   -04 10 49.24  1.0802 2.0166 148.3 22.8 1.46 162
2019 06 17 02  15 55 12.179   -04 10 23.20  1.0804 2.0166 148.3 22.8 1.47 162
2019 06 17 03  15 55 10.037   -04 09 57.19  1.0806 2.0165 148.2 22.8 1.49 162
2019 06 17 04  15 55 07.899   -04 09 31.23  1.0808 2.0165 148.2 22.8 1.50 162
2019 06 17 05  15 55 05.763   -04 09 05.30  1.0809 2.0165 148.2 22.8 1.52 161
2019 06 17 06  15 55 03.631   -04 08 39.40  1.0811 2.0164 148.1 22.8 1.53 161
2019 06 17 07  15 55 01.501   -04 08 13.55  1.0813 2.0164 148.1 22.8 1.55 161
2019 06 17 08  15 54 59.375   -04 07 47.73  1.0815 2.0164 148.0 22.8 1.56 161
2019 06 17 09  15 54 57.251   -04 07 21.94  1.0817 2.0163 148.0 22.8 1.58 161
2019 06 17 10  15 54 55.131   -04 06 56.20  1.0819 2.0163 147.9 22.8 1.59 161
2019 06 17 11  15 54 53.014   -04 06 30.49  1.0821 2.0163 147.9 22.8 1.61 161
2019 06 17 12  15 54 50.900   -04 06 04.81  1.0823 2.0162 147.8 22.8 1.62 160
2019 06 17 13  15 54 48.789   -04 05 39.18  1.0825 2.0162 147.8 22.8 1.64 160
2019 06 17 14  15 54 46.681   -04 05 13.58  1.0827 2.0162 147.7 22.8 1.65 160
2019 06 17 15  15 54 44.576   -04 04 48.01  1.0829 2.0161 147.7 22.8 1.67 160
2019 06 17 16  15 54 42.474   -04 04 22.49  1.0831 2.0161 147.7 22.8 1.69 160
2019 06 17 17  15 54 40.375   -04 03 57.00  1.0833 2.0161 147.6 22.8 1.70 160
2019 06 17 18  15 54 38.280   -04 03 31.55  1.0835 2.0160 147.6 22.8 1.72 160